This is the latest recevied weather packets stored in our database for station/object SP2WM. If no packets are shown the sender has not sent any weather packets the latest 10 day(s).
| Time | Temp. | Humidity | Pressure | Rain* | Wind** | Luminosity | Snow |
|---|---|---|---|---|---|---|---|
| 1778098226 | 15° C | 83% | 1003.8 hPa | 0 mm | - | - | - |
| 1778097625 | 15° C | 81% | 1003.8 hPa | 0 mm | - | - | - |
| 1778097028 | 15.56° C | 80% | 1003.7 hPa | 0 mm | - | - | - |
| 1778096436 | 15.56° C | 79% | 1003.7 hPa | 0 mm | - | - | - |
| 1778095834 | 15.56° C | 78% | 1003.5 hPa | 0 mm | - | - | - |
| 1778095232 | 16.11° C | 77% | 1003.4 hPa | 0 mm | - | - | - |
| 1778094624 | 16.67° C | 75% | 1003.4 hPa | 0 mm | - | - | - |
| 1778094043 | 17.22° C | 74% | 1003.3 hPa | 0 mm | - | - | - |
| 1778093441 | 17.22° C | 73% | 1003.2 hPa | 0 mm | - | - | - |
| 1778092826 | 17.78° C | 71% | 1003.2 hPa | 0 mm | - | - | - |
| 1778092243 | 18.33° C | 69% | 1002.9 hPa | 0 mm | - | - | - |
| 1778091081 | 20° C | 64% | 1002.7 hPa | 0 mm | - | - | - |
| 1778090427 | 20.56° C | 62% | 1002.6 hPa | 0 mm | - | - | - |
| 1778089826 | 20.56° C | 60% | 1002.6 hPa | 0 mm | - | - | - |
| 1778089235 | 20.56° C | 60% | 1002.5 hPa | 0 mm | - | - | - |
| 1778088634 | 20.56° C | 60% | 1002.4 hPa | 0 mm | - | - | - |
| 1778088038 | 21.11° C | 59% | 1002.5 hPa | 0 mm | - | - | - |
| 1778087427 | 21.11° C | 59% | 1002.4 hPa | 0 mm | - | - | - |
| 1778086843 | 21.11° C | 58% | 1002.3 hPa | 0 mm | - | - | - |
| 1778086238 | 21.11° C | 59% | 1002.4 hPa | 0 mm | - | - | - |
| 1778085628 | 21.11° C | 59% | 1002.3 hPa | 0 mm | - | - | - |
| 1778085026 | 20.56° C | 60% | 1002.3 hPa | 0 mm | - | - | - |
| 1778084441 | 20.56° C | 60% | 1002.4 hPa | 0 mm | - | - | - |
| 1778083827 | 21.11° C | 59% | 1002.4 hPa | 0 mm | - | - | - |
| 1778083225 | 20.56° C | 59% | 1002.4 hPa | 0 mm | - | - | - |
* Rain latest hour (hover to see other rain measurements)
** Current wind speed in m/s (hover to see current wind gust speed)